DECAYED

STARLINK-2086, 47370 (Decayed)

Orbit data source: Space-Track

STARLINK-2086, 47370 was a payload satellite owned by SpaceX/Seattle (US) in LEO that was launched on Wed, 20 Jan 2021 UTC via an FALCON 9 launch vehicle from the Air Force Eastern Test Range (AFETR). Payload-class satellites include a variety of spacecraft equipped with specific instruments for various scientific and technological missions. These include communications satellites like Starlink; space stations such as the ISS; scientific satellites like the Hubble; Earth observation satellites from companies like Planet Labs, Umbra, and HawkEye 360; GPS; miniature CubeSats for education and research; and military/defense satellites.

Not visible in the next 10 days
Identifier
47370, 2021-005X
Orbit
Decayed
Country
Flag of USUS
Related business
Manufacturer
SpaceX/Seattle
Mission
Decayed Commercial Communications
Bus & Motor
STARLINK, Unknown motor
Mass
260 kg wet, ~248 kg dry
Launch date (UTC)
2021-01-20 (5 years ago)
Launch vehicle
FALCON 9
Launch site
Air Force Eastern Test Range (AFETR)
Object type
Payload
Rocket body
Debris
Shape & HBR
Box + 1 Pan, 10.1 m
Radar Cross Section
13.562 m², Large (>1 m²)

Expand to show TLE details & history
Last TLE update: 5 months ago

TLE from 5 months ago
0 STARLINK-2086
1 47370U 21005X   26015.03315193  .11514924  12481-4  43007-3 0  9992
2 47370  53.0198 195.3581 0005447 276.2750  83.7677 16.43907648276461
Epoch: 2026-01-15T00:47Z
TLE epoch observation values (Epoch: 2026-01-15T00:47:44.326Z)
Latitude
-0.00006°
Longitude
68.93076°
Altitude
155.972 km
Speed
7.814 km/s
True Right ascension
13h 01m 25s
True Declination
0° 00' 00"
Sunlit
Object was in daylight at epoch
Visualization orbit readout
Latitude
Unknown
Longitude
Unknown
Altitude
Unknown
Speed
Unknown
Apparent Right ascension
Unknown
Apparent Declination
Unknown
Sunlit
N/A
Visualization observer readout
Local Sidereal Time
21:28:18
Azimuth
Unknown
Elevation
Unknown
Doppler factor
Unknown
Orbital elements
Apogee altitude
159.28 km
Perigee altitude
152.162 km
Semi-major axis
6,533.858 km
Eccentricity
0.00054
Inclination
53.0198°
RAAN
195.3581°
Arg. of periapsis
276.275°
True anomaly
83.82975°
Mean anomaly
83.7677°
Eccentric anomaly
83.79873°
Mean motion
4.1095 °/min
Orbital period
87.6 mins
BSTAR
0.00043007
Loading maneuver chart data...
Computing Atmospheric mass density...

Documentation

Showing up to 5 results
|